Torna al catalogo

STARLINK-35736

AttivoComunicazioniVLEO
NORAD 66230·PAYLOAD·🇺🇸 United States

Lanciato Oct 28, 2025 da Vandenberg Space Force Base

Loading…

Prossimi Passaggi (prossime 24 ore)

TLE

AggiornatoSource: CelesTrak SupGP

Epoca: Sep 14, 2026, 21:03 UTC

1 66230C 25244AA  26257.87756944 -.00000570  00000+0 -16845-4 0  2574
2 66230  53.1602  69.9014 0001209  81.6109 244.3362 15.34380466    17

Traccia STARLINK-35736 in tempo reale con AllMySat

Download on the App Store